DW1234 Weather Reports


Display with metric or nautical units.
time (UTC)temp
F
wind
direction
speed
MPH
gust
MPH
rain 1hr
in
rain 24hr
in
rain mn
in
humidity
%
barometer
mb
20181210123716 12 289 0.0 0.0 0.00 0.00 0.00 87 1025.1
20181210123224 12 289 0.0 1.0 0.00 0.00 0.00 87 1025.0
20181210122709 12 289 0.0 2.0 0.00 0.00 0.00 87 1024.9
20181210122216 12 289 0.0 2.0 0.00 0.00 0.00 87 1025.0
20181210121719 13 289 0.0 1.0 0.00 0.00 0.00 87 1025.1
20181210121223 13 289 0.0 2.0 0.00 0.00 0.00 87 1025.2
20181210120726 13 289 0.0 2.0 0.00 0.00 0.00 87 1025.2
20181210120229 13 289 0.0 1.0 0.00 0.00 0.00 87 1025.2
20181210115712 13 289 0.0 1.0 0.00 0.00 0.00 87 1025.1
20181210115214 13 289 0.0 0.0 0.00 0.00 0.00 87 1025.2
20181210114717 13 289 0.0 0.0 0.00 0.00 0.00 87 1024.9
20181210114224 13 289 0.0 0.0 0.00 0.00 0.00 87 1025.1
20181210113726 13 289 0.0 0.0 0.00 0.00 0.00 87 1025.1
20181210113230 13 289 0.0 1.0 0.00 0.00 0.00 86 1025.1
20181210112714 13 289 0.0 1.0 0.00 0.00 0.00 86 1025.0
20181210112219 13 289 0.0 1.0 0.00 0.00 0.00 87 1024.9
20181210111726 13 290 0.0 1.0 0.00 0.00 0.00 86 1024.9
20181210111230 13 289 0.0 3.0 0.00 0.00 0.00 86 1024.9
20181210110733 13 289 1.0 3.0 0.00 0.00 0.00 86 1024.9
20181210110214 13 289 1.0 3.0 0.00 0.00 0.00 86 1025.0
20181210105716 13 290 1.0 4.0 0.00 0.00 0.00 86 1024.9
20181210105221 13 289 2.0 4.0 0.00 0.00 0.00 86 1025.0
20181210104712 13 290 2.0 5.0 0.00 0.00 0.00 86 1025.0
20181210104216 13 294 1.0 5.0 0.00 0.00 0.00 86 1025.1
20181210103718 13 294 1.0 4.0 0.00 0.00 0.00 86 1025.3
20181210103244 14 298 1.0 3.0 0.00 0.00 0.00 86 1025.2
20181210102726 14 288 1.0 3.0 0.00 0.00 0.00 86 1025.1
20181210102215 14 275 0.0 2.0 0.00 0.00 0.00 86 1025.0
20181210101716 14 274 0.0 3.0 0.00 0.00 0.00 86 1025.2
20181210101219 14 273 0.0 3.0 0.00 0.00 0.00 86 1025.2
20181210100727 14 275 0.0 3.0 0.00 0.00 0.00 86 1025.2
20181210100228 14 276 1.0 2.0 0.00 0.00 0.00 86 1025.2
20181210095712 14 281 0.0 4.0 0.00 0.00 0.00 86 1025.0
20181210095218 14 286 1.0 4.0 0.00 0.00 0.00 86 1025.3
20181210094725 14 286 0.0 3.0 0.00 0.00 0.00 86 1025.2
20181210094213 14 281 1.0 3.0 0.00 0.00 0.00 86 1025.3
20181210093716 15 263 0.0 3.0 0.00 0.00 0.00 86 1025.3
20181210093220 15 261 0.0 3.0 0.00 0.00 0.00 86 1025.2
20181210092726 15 263 2.0 3.0 0.00 0.00 0.00 86 1025.2
20181210092213 15 293 1.0 2.0 0.00 0.00 0.00 85 1025.4
20181210091717 15 302 0.0 3.0 0.00 0.00 0.00 85 1025.5
20181210091222 15 302 0.0 3.0 0.00 0.00 0.00 85 1025.5
20181210090726 15 302 0.0 0.0 0.00 0.00 0.00 85 1025.6
20181210090228 15 302 0.0 0.0 0.00 0.00 0.00 85 1025.6
20181210085714 15 302 0.0 0.0 0.00 0.00 0.00 85 1025.6
20181210085219 15 302 0.0 0.0 0.00 0.00 0.00 85 1025.6
20181210084722 15 302 0.0 0.0 0.00 0.00 0.00 85 1025.6
20181210084208 16 302 0.0 0.0 0.00 0.00 0.00 85 1025.5
20181210083221 16 302 0.0 0.0 0.00 0.00 0.00 85 1025.5
20181210082722 16 302 0.0 0.0 0.00 0.00 0.00 85 1025.5
20181210082229 16 302 0.0 0.0 0.00 0.00 0.00 85 1025.4
20181210081714 16 302 0.0 0.0 0.00 0.00 0.00 85 1025.5
20181210081219 16 302 0.0 0.0 0.00 0.00 0.00 85 1025.4
20181210080722 16 302 0.0 0.0 0.00 0.00 0.00 85 1025.4
20181210080208 16 302 0.0 0.0 0.00 0.00 0.00 85 1025.5
20181210075714 16 302 0.0 1.0 0.00 0.00 0.00 85 1025.3
20181210075217 16 302 0.0 2.0 0.00 0.00 0.00 85 1025.2
20181210074723 16 302 1.0 2.0 0.00 0.00 0.00 85 1025.2
20181210074225 17 302 0.0 2.0 0.00 0.00 0.00 85 1025.2
20181210073728 17 302 0.0 2.0 0.00 0.00 0.00 85 1025.2
20181210073213 17 302 0.0 2.0 0.00 0.00 0.00 85 1025.2
20181210072720 17 302 0.0 1.0 0.00 0.00 0.00 85 1025.2
20181210072224 17 302 0.0 3.0 0.00 0.00 0.00 84 1025.2
20181210071728 17 302 1.0 3.0 0.00 0.00 0.00 85 1025.2
20181210071216 17 304 2.0 3.0 0.00 0.00 0.00 84 1025.4
20181210070718 17 311 1.0 2.0 0.00 0.00 0.00 84 1025.4
20181210070223 17 328 0.0 0.0 0.00 0.00 0.00 84 1025.4
20181210065724 17 328 0.0 0.0 0.00 0.00 0.00 84 1025.5
20181210065228 17 328 0.0 0.0 0.00 0.00 0.00 84 1025.6
20181210064710 17 328 0.0 0.0 0.00 0.00 0.00 84 1025.5
20181210064216 18 328 0.0 0.0 0.00 0.00 0.00 84 1025.6
20181210063717 18 328 0.0 0.0 0.00 0.00 0.00 84 1025.7
20181210063223 18 328 0.0 0.0 0.00 0.00 0.00 84 1025.8
20181210062726 18 328 0.0 0.0 0.00 0.00 0.00 84 1025.7
20181210062212 18 328 0.0 0.0 0.00 0.00 0.00 84 1025.7
20181210061720 18 328 0.0 0.0 0.00 0.00 0.00 84 1025.8
20181210061226 18 328 0.0 0.0 0.00 0.00 0.00 84 1025.8
20181210060710 18 328 0.0 0.0 0.00 0.00 0.00 84 1025.9
20181210060215 18 328 0.0 0.0 0.00 0.00 0.00 84 1026.0
20181210055719 18 328 0.0 0.0 0.00 0.00 0.00 84 1025.9
20181210055222 19 328 0.0 0.0 0.00 0.00 0.00 83 1025.9
20181210054727 19 329 0.0 0.0 0.00 0.00 0.00 83 1025.9
20181210054212 19 328 0.0 0.0 0.00 0.00 0.00 83 1025.9
20181210053717 19 328 0.0 0.0 0.00 0.00 0.00 84 1025.9
20181210053225 19 328 0.0 0.0 0.00 0.00 0.00 84 1025.9
20181210052712 19 328 0.0 0.0 0.00 0.00 0.00 83 1025.9
20181210052216 19 328 0.0 0.0 0.00 0.00 0.00 83 1026.0
20181210051716 20 329 0.0 0.0 0.00 0.00 0.00 83 1026.0
20181210051222 20 329 0.0 0.0 0.00 0.00 0.00 84 1026.0
20181210050726 20 329 0.0 0.0 0.00 0.00 0.00 84 1026.0
20181210050211 20 329 0.0 0.0 0.00 0.00 0.00 84 1025.9
20181210045713 20 328 0.0 0.0 0.00 0.00 0.00 84 1025.9
20181210045221 20 328 0.0 0.0 0.00 0.00 0.00 84 1025.9
20181210044726 20 342 0.0 0.0 0.00 0.00 0.00 84 1025.8
20181210044212 20 11 0.0 0.0 0.00 0.00 0.00 83 1025.8
20181210043716 20 11 0.0 0.0 0.00 0.00 0.00 84 1025.8
20181210043226 20 11 0.0 0.0 0.00 0.00 0.00 84 1025.7
20181210042729 21 11 0.0 1.0 0.00 0.00 0.00 84 1025.7
20181210042215 21 11 0.0 1.0 0.00 0.00 0.00 84 1025.8
20181210041718 21 22 0.0 1.0 0.00 0.00 0.00 84 1025.7
20181210041222 21 22 0.0 1.0 0.00 0.00 0.00 84 1025.7
20181210040726 21 22 0.0 2.0 0.00 0.00 0.00 83 1025.7
20181210040227 21 22 0.0 4.0 0.00 0.00 0.00 83 1025.9
20181210035711 21 13 1.0 4.0 0.00 0.00 0.00 83 1025.8
20181210035214 21 16 0.0 3.0 0.00 0.00 0.00 83 1025.9
20181210034715 21 17 0.0 0.0 0.00 0.00 0.00 83 1025.9
20181210034219 21 17 0.0 3.0 0.00 0.00 0.00 83 1025.9
20181210033725 21 17 1.0 3.0 0.00 0.00 0.00 82 1025.9
20181210033210 21 21 0.0 2.0 0.00 0.00 0.00 82 1025.9
20181210032714 21 22 0.0 3.0 0.00 0.00 0.00 82 1025.9
20181210032222 21 16 0.0 3.0 0.00 0.00 0.00 82 1025.9
20181210031728 22 24 0.0 1.0 0.00 0.00 0.00 82 1025.9
20181210031211 22 25 0.0 1.0 0.00 0.00 0.00 82 1026.0
20181210030716 22 26 0.0 4.0 0.00 0.00 0.00 81 1026.0
20181210030219 22 26 1.0 4.0 0.00 0.00 0.00 81 1026.0
20181210025724 21 341 0.0 4.0 0.00 0.00 0.00 81 1026.1
20181210025228 21 333 0.0 2.0 0.00 0.00 0.00 80 1026.1
20181210024715 21 333 0.0 4.0 0.00 0.00 0.00 79 1026.0
20181210024219 21 332 1.0 4.0 0.00 0.00 0.00 79 1026.1
20181210023722 21 330 1.0 3.0 0.00 0.00 0.00 79 1026.1
20181210023229 21 329 0.0 2.0 0.00 0.00 0.00 79 1026.1
20181210022712 22 329 0.0 0.0 0.00 0.00 0.00 78 1026.0
20181210022217 22 329 0.0 0.0 0.00 0.00 0.00 78 1026.0
20181210021721 22 329 0.0 0.0 0.00 0.00 0.00 78 1026.0
20181210021225 22 329 0.0 0.0 0.00 0.00 0.00 78 1026.0
20181210020729 22 329 0.0 0.0 0.00 0.00 0.00 78 1025.9
20181210020212 22 329 0.0 0.0 0.00 0.00 0.00 77 1026.0
20181210015712 22 329 0.0 0.0 0.00 0.00 0.00 77 1026.0
20181210015220 22 329 0.0 0.0 0.00 0.00 0.00 77 1026.0
20181210014721 22 329 0.0 0.0 0.00 0.00 0.00 77 1026.0
20181210014228 23 329 0.0 0.0 0.00 0.00 0.00 77 1026.0
20181210013709 23 329 0.0 0.0 0.00 0.00 0.00 76 1026.0
20181210013215 23 329 0.0 0.0 0.00 0.00 0.00 76 1026.1
20181210012721 23 329 0.0 0.0 0.00 0.00 0.00 76 1026.1
20181210012226 23 329 0.0 0.0 0.00 0.00 0.00 76 1026.2
20181210011729 23 329 0.0 0.0 0.00 0.00 0.00 75 1026.2
20181210011212 23 329 0.0 0.0 0.00 0.00 0.00 75 1026.2
20181210010720 23 329 0.0 0.0 0.00 0.00 0.00 75 1026.2
20181210010221 24 329 0.0 0.0 0.00 0.00 0.00 75 1026.2
20181210005726 24 329 0.0 0.0 0.00 0.00 0.00 75 1026.3
20181210005210 24 329 0.0 0.0 0.00 0.00 0.00 75 1026.3
20181210004715 24 329 0.0 0.0 0.00 0.00 0.00 74 1026.3
20181210004217 24 329 0.0 0.0 0.00 0.00 0.00 74 1026.1
20181210003719 24 329 0.0 0.0 0.00 0.00 0.00 74 1026.0
20181210003224 24 329 0.0 1.0 0.00 0.00 0.00 74 1026.0
20181210002727 25 329 0.0 1.0 0.00 0.00 0.00 74 1026.0
20181210002212 25 329 0.0 0.0 0.00 0.00 0.00 74 1025.9
20181210001717 25 329 0.0 0.0 0.00 0.00 0.00 73 1025.9
20181210001221 25 329 0.0 0.0 0.00 0.00 0.00 73 1025.9
20181210000707 25 329 0.0 3.0 0.00 0.00 0.00 73 1025.8
20181210000212 26 329 0.0 3.0 0.00 0.00 0.00 73 1025.8
20181209235717 26 329 0.0 1.0 0.00 0.00 0.00 73 1025.8
20181209235219 26 329 0.0 1.0 0.00 0.00 0.00 73 1025.8
20181209234723 26 329 0.0 0.0 0.00 0.00 0.00 72 1025.9
20181209234227 27 329 0.0 0.0 0.00 0.00 0.00 72 1025.9
20181209233711 27 329 0.0 0.0 0.00 0.00 0.00 72 1025.8
20181209233216 27 329 0.0 0.0 0.00 0.00 0.00 72 1025.7
20181209232719 27 329 0.0 1.0 0.00 0.00 0.00 72 1025.7
20181209232223 27 329 0.0 1.0 0.00 0.00 0.00 72 1025.6
20181209231710 28 329 0.0 1.0 0.00 0.00 0.00 72 1025.6
20181209231216 28 329 0.0 0.0 0.00 0.00 0.00 71 1025.6
20181209230722 28 329 0.0 0.0 0.00 0.00 0.00 72 1025.6
20181209230224 28 329 0.0 2.0 0.00 0.00 0.00 72 1025.5
20181209225729 29 329 0.0 2.0 0.00 0.00 0.00 71 1025.5
20181209225214 29 327 0.0 1.0 0.00 0.00 0.00 71 1025.5
20181209224718 29 327 0.0 3.0 0.00 0.00 0.00 71 1025.4
20181209224221 29 327 1.0 3.0 0.00 0.00 0.00 71 1025.4
20181209223726 30 326 0.0 3.0 0.00 0.00 0.00 70 1025.3
20181209223214 30 326 0.0 4.0 0.00 0.00 0.00 70 1025.4
20181209222716 30 325 0.0 4.0 0.00 0.00 0.00 69 1025.4
20181209222222 31 327 1.0 3.0 0.00 0.00 0.00 69 1025.4
20181209221729 31 326 0.0 4.0 0.00 0.00 0.00 69 1025.3
20181209221213 31 326 0.0 4.0 0.00 0.00 0.00 69 1025.3
20181209220714 31 327 1.0 4.0 0.00 0.00 0.00 69 1025.2
20181209220214 31 328 0.0 2.0 0.00 0.00 0.00 68 1025.2
20181209215719 32 328 0.0 3.0 0.00 0.00 0.00 68 1025.2
20181209215222 32 328 0.0 4.0 0.00 0.00 0.00 68 1025.1
20181209214728 32 328 0.0 4.0 0.00 0.00 0.00 68 1025.0
20181209214212 32 328 1.0 3.0 0.00 0.00 0.00 68 1025.0
20181209213720 32 328 0.0 3.0 0.00 0.00 0.00 68 1025.0
20181209213223 32 333 0.0 3.0 0.00 0.00 0.00 68 1025.0
20181209212714 33 324 1.0 3.0 0.00 0.00 0.00 67 1025.0
20181209212218 33 332 0.0 1.0 0.00 0.00 0.00 67 1025.0
20181209211721 33 281 0.0 1.0 0.00 0.00 0.00 67 1025.0
20181209211226 33 304 0.0 2.0 0.00 0.00 0.00 67 1025.0
20181209210714 33 283 0.0 2.0 0.00 0.00 0.00 67 1025.0
20181209210216 33 313 0.0 4.0 0.00 0.00 0.00 68 1025.1
20181209205718 33 296 1.0 3.0 0.00 0.00 0.00 68 1025.1
20181209205221 33 329 0.0 3.0 0.00 0.00 0.00 69 1025.2
20181209204725 33 300 0.0 3.0 0.00 0.00 0.00 69 1025.2
20181209204207 33 254 0.0 5.0 0.00 0.00 0.00 69 1025.2
20181209203712 33 242 2.0 5.0 0.00 0.00 0.00 70 1025.2
20181209203219 33 248 1.0 5.0 0.00 0.00 0.00 70 1025.2
20181209202723 33 244 2.0 5.0 0.00 0.00 0.00 70 1025.2
20181209202211 33 232 3.0 5.0 0.00 0.00 0.00 70 1025.3
20181209201716 33 243 1.0 5.0 0.00 0.00 0.00 70 1025.3
20181209201221 32 255 0.0 4.0 0.00 0.00 0.00 70 1025.3
20181209200725 32 253 1.0 5.0 0.00 0.00 0.00 70 1025.3
20181209200226 32 238 2.0 5.0 0.00 0.00 0.00 71 1025.4
20181209195714 32 238 1.0 3.0 0.00 0.00 0.00 71 1025.4
20181209195216 32 220 0.0 3.0 0.00 0.00 0.00 71 1025.4
20181209194721 32 249 1.0 4.0 0.00 0.00 0.00 72 1025.4
20181209194224 32 225 1.0 4.0 0.00 0.00 0.00 72 1025.4
20181209193710 32 232 2.0 4.0 0.00 0.00 0.00 72 1025.5
20181209193215 31 246 1.0 5.0 0.00 0.00 0.00 72 1025.5
20181209192723 31 248 2.0 5.0 0.00 0.00 0.00 73 1025.5
20181209192227 31 244 1.0 5.0 0.00 0.00 0.00 73 1025.6
20181209191712 31 217 1.0 5.0 0.00 0.00 0.00 74 1025.6
20181209191217 31 226 0.0 4.0 0.00 0.00 0.00 74 1025.7
20181209190719 30 229 1.0 5.0 0.00 0.00 0.00 74 1025.7
20181209190221 30 283 1.0 5.0 0.00 0.00 0.00 75 1025.7
20181209185728 30 255 0.0 5.0 0.00 0.00 0.00 76 1025.7
20181209185211 30 245 2.0 6.0 0.00 0.00 0.00 76 1025.8
20181209184717 30 244 3.0 6.0 0.00 0.00 0.00 77 1025.9
20181209184223 30 235 1.0 4.0 0.00 0.00 0.00 78 1025.9
20181209183725 30 295 0.0 3.0 0.00 0.00 0.00 79 1025.9
20181209183227 30 239 1.0 3.0 0.00 0.00 0.00 80 1025.9
20181209182728 29 286 0.0 4.0 0.00 0.00 0.00 81 1025.9
20181209182212 29 232 1.0 4.0 0.00 0.00 0.00 83 1025.9
20181209181720 29 239 2.0 4.0 0.00 0.00 0.00 85 1025.9
20181209181210 29 248 0.0 5.0 0.00 0.00 0.00 86 1025.9
20181209180712 28 247 1.0 5.0 0.00 0.00 0.00 87 1025.9
20181209180217 28 248 1.0 4.0 0.00 0.00 0.00 88 1025.9
20181209175707 27 232 1.0 5.0 0.00 0.00 0.00 89 1026.0
20181209175218 27 230 2.0 5.0 0.00 0.00 0.00 89 1026.1
20181209174721 26 257 0.0 3.0 0.00 0.00 0.00 89 1026.2
20181209174225 26 261 0.0 3.0 0.00 0.00 0.00 89 1026.3
20181209173727 25 303 0.0 3.0 0.00 0.00 0.00 90 1026.4
20181209173210 25 246 0.0 5.0 0.00 0.00 0.00 90 1026.5
20181209172714 24 238 3.0 5.0 0.00 0.00 0.00 90 1026.5
20181209172218 24 246 1.0 5.0 0.00 0.00 0.00 90 1026.5
20181209171719 23 227 2.0 5.0 0.00 0.00 0.00 90 1026.6
20181209171227 23 257 1.0 4.0 0.00 0.00 0.00 90 1026.6
20181209170711 23 248 1.0 6.0 0.00 0.00 0.00 90 1026.6
20181209170217 22 265 3.0 6.0 0.00 0.00 0.00 90 1026.6
20181209165721 22 246 2.0 5.0 0.00 0.00 0.00 90 1026.6
20181209165223 22 221 3.0 5.0 0.00 0.00 0.00 90 1026.6
20181209164709 22 250 4.0 5.0 0.00 0.00 0.00 90 1026.6
20181209164213 22 259 2.0 5.0 0.00 0.00 0.00 90 1026.6
20181209163719 21 246 1.0 5.0 0.00 0.00 0.00 90 1026.7
20181209163224 21 219 2.0 6.0 0.00 0.00 0.00 90 1026.7
20181209162728 21 249 2.0 6.0 0.00 0.00 0.00 90 1026.7
20181209162210 21 227 2.0 4.0 0.00 0.00 0.00 90 1026.8
20181209161712 21 209 1.0 5.0 0.00 0.00 0.00 90 1026.8
20181209161218 21 229 2.0 5.0 0.00 0.00 0.00 90 1026.8
20181209160727 20 222 2.0 6.0 0.00 0.00 0.00 90 1026.8
20181209160210 20 239 5.0 7.0 0.00 0.00 0.00 90 1026.8
20181209155716 20 236 2.0 5.0 0.00 0.00 0.00 90 1026.7
20181209155220 20 206 3.0 6.0 0.00 0.00 0.00 90 1026.8
20181209154724 19 230 3.0 6.0 0.00 0.00 0.00 90 1026.8
20181209154208 19 218 3.0 8.0 0.00 0.00 0.00 90 1026.7
20181209153713 19 227 4.0 8.0 0.00 0.00 0.00 90 1026.7
20181209153220 19 220 4.0 6.0 0.00 0.00 0.00 90 1026.6
20181209152724 18 236 2.0 6.0 0.00 0.00 0.00 90 1026.6
20181209152209 18 242 3.0 7.0 0.00 0.00 0.00 90 1026.6
20181209151717 18 225 4.0 7.0 0.00 0.00 0.00 90 1026.5
20181209151222 18 240 4.0 7.0 0.00 0.00 0.00 90 1026.4
20181209150728 18 220 4.0 6.0 0.00 0.00 0.00 90 1026.3
20181209150209 18 218 2.0 5.0 0.00 0.00 0.00 90 1026.2
20181209145713 17 205 3.0 4.0 0.00 0.00 0.00 90 1026.1
20181209145216 17 181 2.0 5.0 0.00 0.00 0.00 90 1026.1
20181209144721 17 155 1.0 5.0 0.00 0.00 0.00 90 1026.1
20181209144223 17 186 2.0 4.0 0.00 0.00 0.00 90 1026.1
20181209143709 17 165 1.0 4.0 0.00 0.00 0.00 90 1026.1
20181209143214 17 176 0.0 4.0 0.00 0.00 0.00 90 1026.2
20181209142717 16 186 0.0 4.0 0.00 0.00 0.00 90 1026.0
20181209142225 16 180 1.0 5.0 0.00 0.00 0.00 89 1026.1
20181209141727 16 183 2.0 5.0 0.00 0.00 0.00 89 1026.2
20181209141210 16 193 2.0 5.0 0.00 0.00 0.00 89 1026.2
20181209140715 16 174 2.0 5.0 0.00 0.00 0.00 89 1026.2
20181209140217 16 179 2.0 6.0 0.00 0.00 0.00 89 1026.3
20181209135721 16 146 2.0 7.0 0.00 0.00 0.00 89 1026.2
20181209135225 16 202 3.0 8.0 0.00 0.00 0.00 89 1026.1
20181209134728 16 214 5.0 8.0 0.00 0.00 0.00 89 1026.0
20181209134214 16 212 3.0 6.0 0.00 0.00 0.00 89 1026.2
20181209133717 16 189 3.0 6.0 0.00 0.00 0.00 89 1026.2
20181209133224 16 155 3.0 6.0 0.00 0.00 0.00 89 1026.2
20181209132711 16 148 3.0 6.0 0.00 0.00 0.00 89 1026.0
20181209132219 16 192 2.0 5.0 0.00 0.00 0.00 89 1026.0
20181209131722 16 182 2.0 7.0 0.00 0.00 0.00 89 1026.1
20181209131225 16 173 3.0 7.0 0.00 0.00 0.00 89 1026.1
20181209130709 16 203 3.0 6.0 0.00 0.00 0.00 89 1026.1
20181209130210 16 189 2.0 6.0 0.00 0.00 0.00 89 1026.1
20181209125712 16 193 3.0 6.0 0.00 0.00 0.00 89 1026.0
20181209125216 16 210 3.0 6.0 0.00 0.00 0.00 89 1026.1
20181209124722 16 190 2.0 5.0 0.00 0.00 0.00 89 1026.1
20181209124228 16 167 3.0 5.0 0.00 0.00 0.00 89 1026.1